Flag for United Kingdom Weather past 2 weeks in Manchester, England, United Kingdom

Now
61 °F

Light rain. Scattered clouds.


Feels Like: 61 °F
Forecast: 56 / 66 °F
Wind: 7 mph from South

Location: Manchester Airport

Current Time: Aug 1, 2014 at 9:50:18 AM

Latest Report: Aug 1, 2014 at 9:20 AM


Visibility: 5 mi

Pressure: 29.74 "Hg

Humidity: 88%

Dew point: 57 °F

Location of ManchesterLocation

Historic Weather in Manchester — Graph

°F

Manchester temperature yesterday

Maximum temperature yesterday: 70 °F (at 12:50 PM)
Minimum temperature yesterday: 57 °F (at 12:20 AM)
Average temperature yesterday: 64 °F

Past Weeks' High & Low Weather Summary

 TemperatureHumidityPressure
High81 °F (Jul 24, 3:20 PM)100% (Jul 19, 4:20 AM)30.27 "Hg (Jul 19, 4:20 AM)
Low52 °F (Jul 28, 5:20 AM)39% (Jul 24, 3:20 PM)29.71 "Hg (Jul 19, 5:50 PM)
Average66 °F73%30.02 "Hg
* Reported Jul 17 8:20 AM — Aug 1 8:20 AM, Manchester, Weather by CustomWeather, © 2014

Note: Actual official high and low records may vary slightly from our data, if they occured in-between our weather recording intervals... More about our weather records

Advertising

Manchester weather history for previous 24 hours

 ConditionsComfort  
Time TempWeatherWind HumidityBarometerVisibility
8:20 AM
Aug 1
63 °FScattered clouds.9 mph83%29.74 "Hg6 mi
7:50 AM61 °FPassing clouds.9 mph88%29.74 "Hg6 mi
7:20 AM61 °FPassing clouds.9 mph88%29.74 "Hg6 mi
6:50 AM61 °FPassing clouds.10 mph83%29.74 "Hg5 mi
6:20 AM59 °FClear.12 mph88%29.74 "Hg6 mi
5:50 AM59 °FClear.13 mph88%29.74 "Hg5 mi
5:20 AM59 °FClear.9 mph88%29.74 "Hg5 mi
4:50 AM59 °FClear.9 mph88%29.77 "Hg6 mi
4:20 AM59 °FPassing clouds.9 mph88%29.77 "Hg6 mi
3:50 AM59 °FPassing clouds.9 mph88%29.77 "HgN/A
3:20 AM61 °FPartly cloudy.9 mph83%29.77 "HgN/A
2:50 AM61 °FCool.8 mph83%29.80 "HgN/A
2:20 AM59 °FPassing clouds.9 mph88%29.80 "Hg6 mi
1:50 AM59 °FClear.7 mph88%29.80 "Hg10 mi
1:20 AM57 °FClear.6 mph88%29.80 "Hg10 mi
12:50 AM59 °FClear.6 mph88%29.80 "Hg10 mi
12:20 AM59 °FClear.7 mph88%29.83 "Hg10 mi
11:50 PM
Jul 31
59 °FClear.7 mph88%29.83 "Hg10 mi
11:20 PM59 °FClear.2 mph88%29.83 "Hg10 mi
10:50 PM59 °FClear.3 mph88%29.83 "Hg10 mi
10:20 PM61 °FClear.6 mph83%29.83 "Hg10 mi
9:50 PM63 °FPassing clouds.7 mph73%29.83 "HgN/A
9:20 PM64 °FPassing clouds.8 mph73%29.83 "HgN/A
8:50 PM64 °FScattered clouds.8 mph73%29.83 "HgN/A
8:20 PM66 °FPartly sunny.6 mph73%29.83 "HgN/A
7:50 PM68 °FScattered clouds.8 mph69%29.83 "HgN/A
7:20 PM68 °FMostly cloudy.6 mph64%29.83 "HgN/A
6:50 PM68 °FPartly sunny.10 mph64%29.83 "HgN/A
6:20 PM70 °FBroken clouds.9 mph60%29.83 "HgN/A
5:50 PM70 °FPartly sunny.9 mph57%29.83 "HgN/A
5:20 PM70 °FPassing clouds.12 mph60%29.86 "HgN/A
4:50 PM70 °FScattered clouds.9 mph64%29.86 "HgN/A
4:20 PM68 °FBroken clouds.10 mph64%29.86 "HgN/A
3:50 PM70 °FScattered clouds.7 mph64%29.86 "HgN/A
3:20 PM68 °FPartly sunny.8 mph69%29.86 "HgN/A
2:50 PM68 °FBroken clouds.6 mph69%29.89 "HgN/A
2:20 PM68 °FBroken clouds.6 mph64%29.89 "HgN/A
1:50 PM68 °FPassing clouds.6 mph64%29.89 "HgN/A
1:20 PM68 °FPartly sunny.9 mph64%29.89 "HgN/A
12:50 PM70 °FPartly sunny.8 mph60%29.89 "HgN/A
12:20 PM66 °FPartly sunny.9 mph68%29.89 "HgN/A
11:50 AM66 °FOvercast.10 mph64%29.89 "HgN/A
11:20 AM66 °FPartly sunny.12 mph64%29.92 "HgN/A
10:50 AM66 °FPartly sunny.13 mph64%29.92 "HgN/A
10:20 AM66 °FBroken clouds.12 mph68%29.92 "HgN/A
9:50 AM66 °FBroken clouds.12 mph73%29.92 "HgN/A
9:20 AM64 °FBroken clouds.13 mph78%29.92 "HgN/A
Weather by CustomWeather, © 2014

See weather overviewHow to use our weather pages